Temperature
8 10 10 10 10 10 10 11 11 11 9 9 10 10 11 10 9 9 9 8 8 7 7 7 7 7 7 7 7 7 7 7 7 7 7 7 7 7 7 7 7 7 7 7
9 9 9 9 9 9 9 10 10 9 8 9 9 10 11 10 9 9 9 8 8 7 7 6 6 7 7 7 7 7 7 7 7 7 7 7 7 7 7 7 7 6 7 7
9 9 8 8 8 8 9 9 9 9 8 8 9 10 10 10 9 8 8 8 7 7 6 6 6 6 6 6 6 6 6 6 6 6 6 6 6 6 6 6 6 6 6 6
8 7 7 8 8 8 9 8 8 8 9 9 9 10 11 10 9 9 8 7 7 6 6 6 6 6 6 6 6 6 6 6 6 6 6 6 6 5 5 6 6 5 5 5
7 7 7 7 7 7 8 7 7 8 8 8 8 9 11 9 9 9 9 7 7 6 6 6 5 6 6 6 6 6 5 5 5 5 5 5 5 5 5 5 5 5 5 5
7 6 6 7 6 6 6 7 7 7 7 7 8 9 11 10 10 10 8 7 6 5 5 5 5 5 6 6 6 6 5 5 5 5 5 5 5 4 4 4 4 4 4 4
6 6 6 6 6 6 6 7 7 7 7 9 8 8 10 10 9 8 8 7 6 5 5 5 5 5 5 5 5 5 5 5 4 4 4 4 4 4 4 4 4 4 4 4
7 7 6 5 6 6 6 7 8 8 9 9 7 8 10 8 6 6 5 5 5 5 4 4 4 5 5 5 5 5 4 4 4 4 4 4 4 4 3 3 3 3 3 3
7 7 5 5 5 6 6 6 7 7 6 7 9 8 8 7 6 6 5 5 4 4 4 4 4 4 4 4 4 4 4 4 4 4 3 3 3 3 3 3 3 3 3 3
6 5 5 4 5 5 6 6 6 6 7 8 9 8 9 8 8 7 6 5 4 4 3 3 4 4 4 4 4 4 4 4 3 3 3 3 3 3 3 2 2 2 2 2
5 5 4 4 4 5 4 4 5 6 6 8 8 9 8 8 7 7 6 5 4 4 3 3 3 4 4 4 4 4 4 3 3 3 2 2 2 2 2 2 2 2 2 2
4 4 5 4 3 3 4 5 5 6 5 5 7 9 6 6 6 5 5 4 4 3 3 3 3 3 3 3 4 4 3 3 3 2 2 2 2 2 2 2 1 1 1 1
3 3 4 4 3 2 2 3 3 3 5 5 6 8 5 5 4 4 4 4 3 3 3 3 3 3 3 3 3 3 3 3 2 2 2 1 1 1 1 1 1 1 1 1
3 3 4 6 5 4 2 2 2 3 4 5 6 7 7 6 5 5 4 4 3 3 3 3 3 3 2 3 3 3 2 2 2 2 1 1 1 1 1 1 1 1 0 0
2 3 2 2 2 2 2 2 1 2 4 5 5 5 6 6 5 4 4 3 3 2 2 2 2 2 2 2 2 2 2 2 1 1 1 1 1 1 1 0 0 0 0 0
0 1 1 1 1 1 1 2 2 1 2 3 3 4 5 4 3 3 3 2 2 2 2 2 2 2 2 2 2 2 1 1 1 1 1 1 1 0 0 0 -0 -0 -0 -0
0 0 2 3 1 0 2 2 2 2 2 2 3 4 4 3 3 2 2 2 2 2 2 2 1 1 1 1 1 1 1 1 1 1 1 0 0 0 0 -0 -0 -1 -1 -1
-1 0 1 2 1 2 4 2 2 2 1 1 2 3 3 2 2 2 2 2 2 2 1 1 1 1 1 1 1 1 1 1 1 1 0 0 -0 -0 -0 -1 -1 -1 -1 -1
-1 -0 1 1 2 3 3 1 1 1 2 2 1 2 1 0 1 2 2 2 1 1 1 1 1 1 1 1 1 0 0 1 1 0 0 0 -0 -0 -1 -1 -1 -1 -1 -1
-2 -1 0 1 2 3 4 1 -0 1 2 2 1 1 0 0 3 3 2 1 1 1 1 1 1 0 0 0 0 0 0 0 0 0 0 -0 -0 -1 -1 -1 -1 -1 -2 -2
-1 -1 0 1 2 3 2 -1 -0 2 3 1 0 -0 -0 1 2 1 1 1 1 0 0 0 0 -0 -0 0 -0 -0 -0 0 0 0 -0 -0 -1 -1 -1 -2 -2 -2 -2 -2
0 0 -0 1 1 3 0 -1 1 2 1 0 -0 -0 -0 0 0 0 0 0 0 -0 -0 -0 -0 -0 -1 -1 -1 -0 -0 -0 -0 -0 -0 -1 -1 -1 -2 -2 -2 -2 -3 -3
-1 0 1 1 2 1 -1 -0 0 0 0 0 0 0 -0 -0 -0 -0 -0 -0 -0 -1 -1 -1 -1 -1 -1 -1 -1 -1 -1 -1 -1 -1 -1 -1 -1 -2 -2 -2 -2 -3 -3 -3
-2 -3 -1 -1 0 -0 -1 -1 0 0 0 0 0 0 -0 -0 -0 -1 -1 -1 -1 -1 -1 -1 -1 -1 -1 -1 -1 -1 -1 -1 -1 -1 -1 -1 -2 -2 -2 -3 -3 -3 -3 -3
-0 -3 -2 -2 -0 -1 -0 0 1 0 0 0 0 0 -0 -0 -1 -1 -1 -1 -1 -1 -1 -2 -2 -2 -2 -2 -2 -2 -2 -2 -2 -2 -2 -2 -2 -2 -3 -3 -3 -3 -3 -3
-2 -2 -1 1 1 0 1 1 1 0 0 -0 -0 -0 -1 -1 -1 -1 -1 -1 -1 -2 -2 -2 -2 -2 -2 -2 -2 -2 -2 -2 -2 -2 -2 -2 -3 -3 -3 -3 -3 -3 -3 -3
Wind_Speed
2 4 6 7 8 5 4 6 8 6 2 5 10 12 10 8 9 9 8 8 7 7 5 3 3 3 4 4 4 4 4 4 4 3 3 2 2 1 1 2 2 2 2 2
4 6 5 4 5 5 6 7 7 4 2 5 9 13 11 10 10 10 10 9 8 7 6 5 4 4 4 4 4 4 5 5 5 3 2 2 2 1 1 1 1 1 1 2
7 2 3 5 6 7 8 9 7 5 3 4 7 9 9 8 8 8 9 9 8 8 7 6 5 5 5 5 5 4 5 5 4 4 3 2 2 1 1 1 0 0 0 1
5 3 4 6 7 7 8 6 6 6 5 5 4 7 7 6 7 8 8 8 8 7 7 7 6 6 5 5 5 5 5 5 5 5 4 4 3 2 2 2 1 1 1 1
4 3 5 7 6 7 4 2 4 5 6 6 6 7 7 5 8 8 8 8 7 7 7 7 7 6 6 5 5 5 5 5 5 5 5 5 3 2 2 2 2 2 2 2
3 2 3 4 3 5 4 3 2 3 4 7 8 8 7 5 6 6 6 6 6 6 6 6 5 5 5 4 5 5 6 6 5 5 5 5 4 3 3 3 3 2 2 2
4 4 2 2 4 5 6 4 3 4 5 6 4 7 8 4 5 5 5 5 5 5 5 5 5 5 5 5 5 5 6 6 5 5 5 5 4 4 4 4 4 3 2 2
5 5 5 4 5 5 8 7 5 5 5 3 4 7 5 2 3 4 4 5 4 4 4 4 4 5 5 5 5 6 6 5 5 5 5 4 4 3 3 4 3 4 3 3
6 4 2 3 2 4 5 7 4 2 2 4 6 5 6 4 5 4 4 4 4 4 4 4 4 4 4 5 5 6 6 6 6 6 5 5 4 4 4 3 3 3 3 3
4 4 2 2 3 2 3 4 4 5 4 6 6 7 5 4 5 4 4 4 4 3 3 3 3 3 4 4 5 5 6 6 6 6 5 4 4 4 4 3 4 3 3 3
3 4 2 3 6 7 6 5 5 5 4 5 5 4 2 4 3 4 4 4 3 3 3 3 3 3 3 4 4 5 5 6 5 5 5 5 4 4 4 4 4 4 4 4
4 3 4 5 2 3 6 7 8 6 6 5 5 5 1 2 2 3 3 3 2 3 3 3 3 2 3 3 4 4 5 5 5 5 5 5 5 4 5 4 4 4 4 4
4 4 3 3 3 4 5 7 7 4 3 6 7 6 2 0 2 3 3 3 3 3 3 3 3 3 3 3 3 4 4 4 4 4 5 5 5 5 5 5 4 4 4 4
4 5 7 8 3 4 6 7 9 8 8 9 11 11 6 5 5 5 5 4 4 4 4 4 4 4 3 3 3 3 4 4 4 4 5 5 5 5 5 5 5 5 5 5
4 5 6 7 5 3 6 8 11 13 12 11 11 12 12 8 7 7 6 5 5 5 5 5 5 5 4 4 3 3 3 4 4 5 5 6 5 5 5 5 5 5 5 5
3 4 4 5 6 7 8 11 13 14 14 14 14 15 13 8 7 6 6 6 6 6 6 6 6 6 5 5 5 4 4 4 4 5 5 5 5 5 5 5 5 5 5 5
4 4 4 5 3 5 10 12 14 12 11 11 14 13 7 6 6 7 6 6 7 7 7 7 7 6 6 6 5 5 5 4 5 5 5 5 5 5 5 5 5 5 5 5
5 5 3 3 3 8 5 1 7 10 11 12 10 9 7 7 7 7 7 7 8 7 7 7 6 6 6 5 5 5 4 5 5 5 5 5 5 5 5 5 5 5 5 5
5 6 4 4 5 8 5 3 5 7 8 10 13 12 8 5 6 7 6 6 7 7 7 7 6 6 5 5 5 4 5 5 5 5 5 5 5 5 5 5 5 5 5 5
2 4 4 4 5 6 3 2 2 3 5 4 8 8 6 3 5 6 3 4 6 7 6 6 6 5 5 5 4 5 5 6 6 6 5 5 5 6 6 6 5 4 4 5
4 4 6 7 6 7 2 2 4 4 3 0 4 6 6 6 6 6 5 6 6 6 6 5 5 5 5 4 5 6 6 7 6 5 4 5 5 5 6 5 4 4 4 4
7 6 6 6 7 7 3 5 6 3 2 2 3 5 6 7 7 7 7 7 6 6 6 5 5 5 5 4 5 6 7 6 4 4 4 4 4 4 4 4 4 4 4 4
7 6 4 7 6 2 5 6 5 3 4 5 5 5 6 7 7 7 7 7 6 6 6 5 5 5 5 5 6 7 6 4 4 4 4 4 4 4 4 4 4 4 3 3
5 4 4 6 9 8 8 8 8 7 7 7 7 6 6 7 8 8 7 7 6 6 6 5 5 5 5 4 5 5 4 4 4 4 4 3 3 3 3 3 4 4 4 3
6 6 5 8 9 7 8 9 9 9 8 8 8 7 8 8 8 8 7 7 6 6 5 5 5 6 6 5 4 4 4 4 4 4 3 3 3 3 3 3 3 4 4 3
7 8 8 8 7 7 7 6 7 8 8 8 7 7 7 8 8 8 7 7 6 6 6 5 5 5 5 4 4 4 4 4 4 4 3 3 3 3 3 2 1 1 3 3
Wind_Direction
167 196 211 212 219 244 236 234 246 252 257 244 249 258 257 241 229 232 228 221 219 223 224 209 195 179 170 174 175 171 166 159 150 147 150 148 150 142 118 88 86 82 75 69
187 224 234 223 212 214 225 239 250 256 250 254 265 266 260 241 236 236 233 228 221 215 209 202 196 184 182 181 180 176 176 169 165 162 156 165 172 179 138 100 96 89 80 73
209 221 202 195 197 213 232 239 246 254 276 251 277 265 242 235 234 238 238 235 229 219 212 208 205 200 192 191 191 187 181 175 171 158 141 134 133 141 176 181 188 297 224 148
221 222 194 200 214 221 236 235 238 242 249 254 247 272 247 233 233 234 234 229 227 221 216 212 209 206 202 199 193 192 186 182 175 170 173 176 186 202 214 216 224 228 228 220
210 204 205 218 226 216 221 198 225 239 245 259 234 251 261 231 244 241 233 229 226 223 218 214 210 206 201 195 191 192 186 186 186 188 189 194 202 211 206 206 213 222 226 230
227 210 227 229 218 207 168 157 176 215 230 247 230 230 261 232 245 248 232 227 224 219 219 216 208 200 195 188 187 189 189 193 193 194 197 202 203 203 204 215 218 221 224 233
222 215 207 202 180 179 190 191 211 214 218 237 197 229 253 254 252 251 242 228 218 213 210 208 204 201 196 193 193 193 194 198 196 199 203 206 208 213 218 222 222 226 229 236
217 223 197 202 209 202 201 210 220 236 237 238 202 235 249 264 273 265 247 231 222 216 209 205 206 207 205 203 203 200 200 203 202 203 206 208 211 220 226 229 233 235 239 241
216 222 159 201 221 207 194 213 240 252 279 257 236 249 270 242 250 240 221 211 213 213 207 204 203 206 208 212 213 209 205 206 206 207 208 210 213 222 227 230 235 241 245 244
214 229 222 202 184 199 234 182 178 206 231 244 247 245 239 214 224 212 204 206 210 207 214 215 208 210 215 221 220 215 213 211 210 209 210 214 218 223 227 228 233 242 248 247
206 214 210 190 205 202 182 190 210 211 241 247 254 245 214 224 219 208 211 213 219 219 228 226 227 227 224 225 221 216 215 213 211 211 213 217 219 220 222 224 228 235 243 245
193 212 232 224 217 264 228 217 206 217 221 231 257 267 88 230 229 222 231 246 257 251 252 245 241 236 231 227 226 221 217 215 215 213 215 219 218 217 221 226 229 231 239 242
170 187 215 221 210 208 224 220 215 222 228 226 238 253 94 202 252 251 255 270 281 276 270 258 252 250 248 240 234 230 223 220 216 212 216 220 220 221 226 230 230 231 234 240
187 208 228 244 258 183 207 214 208 209 228 236 240 256 260 269 278 278 272 274 286 282 275 265 258 255 256 252 242 234 229 221 215 214 217 223 225 226 229 230 230 231 234 239
193 228 233 253 265 236 236 227 212 217 230 242 251 252 262 270 273 273 273 273 277 277 270 265 263 261 257 255 249 240 234 226 219 219 222 228 230 228 228 229 230 231 235 239
202 221 223 249 249 247 257 246 231 231 237 245 258 264 268 276 273 266 259 258 268 272 271 270 268 263 256 250 247 244 241 234 225 225 229 231 230 228 228 229 229 231 235 237
189 188 217 254 244 257 257 240 226 225 225 227 241 253 265 268 265 266 265 260 265 271 274 274 269 263 259 254 248 244 241 235 228 230 232 229 227 229 230 229 228 231 234 234
191 190 211 239 208 240 256 253 218 223 236 228 243 258 259 263 277 278 265 263 272 275 275 273 271 268 264 254 248 245 237 230 231 234 234 231 227 229 230 227 228 231 232 233
210 196 202 208 237 265 270 229 202 211 250 232 238 251 260 280 290 273 254 258 268 274 276 274 270 268 264 253 241 236 238 235 234 236 235 232 229 228 226 227 228 229 230 234
165 196 207 206 231 250 266 154 176 196 258 229 221 237 245 240 263 277 282 281 287 285 280 279 277 272 264 255 235 227 233 235 238 240 239 234 228 226 226 227 228 228 230 237
173 191 212 222 239 261 270 149 165 206 268 187 217 230 227 236 262 290 292 287 288 288 287 284 276 271 264 253 233 231 234 238 244 243 239 231 226 225 225 223 223 224 228 235
187 190 202 205 227 248 162 160 200 249 311 259 250 246 246 258 273 280 280 282 285 286 285 282 277 275 268 246 231 236 240 243 239 233 230 227 223 221 217 215 217 219 221 226
209 209 205 209 230 282 183 213 243 272 267 265 261 258 252 262 268 272 277 278 277 277 279 282 275 275 267 247 234 238 244 236 227 224 223 220 218 216 210 208 208 212 215 222
221 216 220 243 254 256 244 251 261 260 260 268 271 267 254 255 264 271 277 279 276 276 274 274 272 270 268 256 244 241 235 222 218 219 217 212 210 209 204 205 207 210 212 217
218 187 217 247 262 277 260 247 253 259 261 267 270 265 257 255 264 267 272 273 272 273 271 265 260 264 268 263 252 240 222 210 212 213 210 209 212 210 205 212 219 220 222 223
213 205 213 239 240 240 258 258 252 253 260 261 264 268 261 253 258 265 265 266 266 266 266 263 262 263 265 258 251 241 222 206 202 204 205 207 209 208 206 203 218 242 237 243
Height
1506 1506 1503 1502 1505 1504 1503 1502 1502 1503 1508 1508 1503 1500 1500 1502 1503 1503 1504 1505 1505 1506 1508 1508 1508 1508 1509 1509 1510 1510 1511 1512 1513 1514 1516 1516 1518 1519 1520 1520 1521 1521 1521 1522
1505 1504 1504 1505 1506 1506 1505 1504 1502 1505 1509 1507 1502 1498 1497 1498 1499 1499 1500 1501 1502 1503 1504 1505 1506 1506 1506 1507 1508 1508 1509 1510 1511 1512 1513 1515 1516 1517 1517 1518 1518 1519 1519 1519
1500 1503 1505 1506 1506 1506 1505 1504 1503 1505 1508 1507 1504 1493 1492 1493 1496 1497 1497 1498 1499 1500 1501 1502 1503 1503 1504 1504 1505 1506 1507 1508 1509 1510 1511 1513 1513 1514 1515 1515 1516 1516 1516 1516
1503 1505 1506 1505 1504 1504 1502 1505 1506 1507 1505 1500 1503 1490 1483 1487 1490 1492 1493 1494 1496 1497 1498 1499 1500 1501 1501 1502 1503 1504 1505 1506 1506 1507 1509 1510 1510 1511 1512 1512 1513 1513 1514 1514
1502 1505 1505 1503 1504 1505 1504 1507 1507 1506 1504 1503 1500 1498 1480 1486 1486 1486 1488 1490 1492 1493 1494 1496 1496 1497 1499 1500 1500 1501 1502 1503 1504 1505 1506 1507 1508 1509 1509 1510 1510 1511 1511 1511
1503 1506 1505 1504 1505 1506 1507 1508 1508 1507 1504 1503 1494 1493 1478 1479 1480 1482 1485 1487 1489 1490 1491 1493 1494 1495 1496 1497 1498 1499 1499 1500 1501 1502 1503 1504 1505 1505 1506 1506 1507 1507 1507 1508
1502 1503 1504 1505 1504 1506 1506 1504 1502 1500 1499 1489 1494 1492 1480 1478 1480 1482 1483 1485 1486 1487 1489 1490 1491 1492 1493 1494 1495 1496 1497 1497 1498 1499 1500 1501 1502 1502 1503 1503 1504 1504 1504 1504
1496 1495 1501 1503 1501 1500 1501 1500 1496 1492 1486 1481 1496 1487 1476 1480 1482 1482 1483 1484 1484 1485 1486 1487 1488 1489 1490 1491 1492 1493 1493 1494 1495 1496 1497 1498 1498 1499 1500 1500 1500 1501 1501 1501
1493 1494 1501 1502 1502 1501 1500 1499 1498 1498 1501 1493 1481 1481 1478 1479 1480 1480 1481 1482 1483 1484 1485 1485 1486 1487 1488 1488 1489 1490 1490 1491 1492 1493 1494 1494 1495 1495 1496 1496 1497 1497 1497 1497
1495 1497 1499 1502 1503 1503 1501 1499 1501 1498 1492 1482 1476 1476 1470 1473 1474 1477 1479 1480 1481 1482 1483 1483 1484 1484 1485 1486 1487 1487 1488 1488 1489 1489 1490 1491 1491 1492 1492 1493 1493 1494 1494 1494
1497 1498 1499 1501 1500 1496 1501 1502 1497 1493 1491 1482 1474 1468 1470 1472 1473 1476 1478 1479 1480 1480 1481 1481 1482 1482 1482 1483 1484 1484 1485 1485 1485 1486 1487 1487 1488 1488 1489 1489 1490 1490 1490 1490
1497 1496 1494 1497 1501 1501 1498 1495 1495 1492 1491 1490 1478 1472 1473 1474 1475 1476 1477 1478 1479 1479 1479 1480 1480 1480 1480 1481 1481 1481 1481 1482 1482 1483 1483 1484 1484 1484 1485 1486 1486 1486 1486 1486
1498 1498 1493 1491 1499 1502 1500 1497 1497 1497 1492 1488 1480 1472 1475 1476 1476 1476 1477 1477 1477 1478 1478 1478 1478 1478 1478 1478 1478 1478 1478 1479 1479 1479 1480 1480 1481 1481 1482 1482 1482 1483 1483 1483
1495 1495 1490 1482 1479 1488 1494 1495 1496 1495 1488 1482 1477 1470 1472 1473 1474 1475 1475 1475 1476 1476 1475 1475 1475 1475 1475 1475 1475 1475 1475 1475 1476 1476 1476 1476 1477 1477 1478 1478 1478 1479 1479 1479
1493 1491 1491 1490 1490 1491 1489 1490 1493 1491 1483 1479 1473 1474 1470 1472 1473 1474 1474 1474 1474 1474 1473 1473 1472 1472 1472 1472 1472 1472 1472 1472 1472 1472 1472 1473 1473 1473 1474 1474 1474 1475 1475 1475
1493 1491 1492 1491 1491 1492 1490 1486 1487 1487 1484 1481 1478 1473 1469 1471 1472 1472 1472 1472 1471 1471 1470 1470 1469 1469 1469 1469 1468 1468 1468 1469 1469 1468 1469 1469 1469 1469 1469 1470 1470 1470 1470 1470
1490 1491 1488 1481 1489 1490 1479 1474 1477 1477 1476 1475 1471 1467 1467 1469 1469 1469 1469 1469 1468 1467 1467 1466 1466 1466 1465 1465 1465 1465 1465 1465 1465 1465 1465 1465 1465 1465 1465 1465 1465 1466 1466 1466
1489 1488 1487 1483 1487 1479 1465 1470 1470 1471 1470 1471 1468 1466 1467 1467 1467 1467 1466 1466 1465 1464 1464 1463 1462 1462 1462 1462 1461 1461 1461 1461 1461 1461 1461 1461 1461 1460 1461 1461 1461 1462 1462 1462
1486 1486 1484 1481 1475 1465 1465 1468 1469 1469 1465 1464 1465 1464 1465 1466 1465 1463 1462 1462 1462 1461 1460 1460 1459 1458 1458 1458 1457 1457 1457 1457 1457 1457 1457 1456 1456 1456 1456 1456 1457 1458 1458 1458
1486 1486 1483 1480 1472 1464 1459 1465 1467 1468 1462 1459 1460 1461 1462 1464 1461 1459 1459 1459 1458 1457 1457 1456 1455 1454 1454 1454 1453 1453 1453 1452 1452 1452 1452 1452 1452 1452 1452 1453 1453 1454 1454 1454
1483 1482 1480 1475 1470 1460 1462 1465 1467 1463 1457 1458 1458 1458 1459 1459 1458 1457 1456 1455 1455 1454 1453 1452 1451 1450 1449 1449 1449 1449 1448 1448 1449 1449 1448 1448 1448 1449 1449 1449 1450 1450 1450 1450
1471 1472 1475 1472 1469 1461 1462 1464 1462 1456 1456 1456 1456 1456 1456 1455 1454 1454 1453 1452 1451 1450 1449 1448 1446 1445 1445 1445 1445 1444 1444 1445 1445 1444 1444 1444 1445 1445 1445 1446 1446 1446 1446 1446
1469 1466 1463 1464 1459 1457 1458 1457 1456 1455 1455 1454 1454 1453 1453 1452 1451 1450 1449 1448 1447 1446 1445 1444 1442 1441 1440 1440 1440 1440 1440 1440 1440 1440 1440 1440 1441 1441 1442 1442 1442 1442 1443 1443
1466 1467 1465 1463 1456 1455 1455 1454 1453 1453 1452 1451 1451 1450 1449 1448 1447 1447 1446 1444 1443 1442 1441 1440 1438 1437 1436 1436 1436 1436 1436 1436 1436 1436 1436 1437 1437 1438 1438 1439 1439 1439 1439 1439
1457 1462 1461 1458 1453 1452 1450 1450 1450 1449 1449 1448 1447 1447 1445 1444 1443 1443 1441 1440 1439 1438 1437 1436 1434 1433 1432 1432 1432 1432 1432 1432 1432 1433 1433 1433 1434 1434 1435 1435 1436 1436 1436 1436
1453 1454 1452 1447 1447 1448 1446 1446 1446 1446 1445 1444 1443 1442 1441 1441 1439 1438 1437 1436 1435 1434 1433 1432 1431 1430 1429 1428 1428 1428 1428 1428 1429 1429 1430 1430 1431 1431 1431 1432 1432 1433 1433 1434